KE8GJZ-2 Weather Reports


time (UTC)temp
F
wind
direction
speed
knots
gust
knots
rain 1hr
in
rain 24hr
in
rain mn
in
humidity
%
barometer
mb
20260906113404 59 207 0.0 0.9 0.00 0.00 0.00 97 1019.4
20260906112900 59 197 1.7 1.7 0.00 0.00 0.00 97 1019.1
20260906112355 58 209 0.0 0.9 0.00 0.00 0.00 97 1019.0
20260906111850 59 205 0.9 1.7 0.00 0.00 0.00 97 1018.9
20260906111349 59 209 0.0 0.9 0.00 0.00 0.00 97 1019.0
20260906110845 59 209 0.0 0.9 0.00 0.00 0.00 97 1019.1
20260906110340 59 215 0.9 0.9 0.00 0.00 0.00 97 1019.1
20260906105839 59 201 0.0 0.9 0.00 0.00 0.00 97 1019.1
20260906105335 59 201 0.9 1.7 0.00 0.00 0.00 97 1019.0
20260906104831 59 207 0.0 1.7 0.00 0.00 0.00 97 1019.0
20260906104329 59 213 0.0 0.0 0.00 0.00 0.00 97 1019.0
20260906103822 59 198 0.9 1.7 0.00 0.00 0.00 97 1018.7
20260906103321 59 205 0.9 1.7 0.00 0.00 0.00 96 1019.0
20260906102817 59 207 0.9 1.7 0.00 0.00 0.00 96 1018.9
20260906102316 59 209 0.0 0.9 0.00 0.00 0.00 96 1018.8
20260906101811 59 206 0.0 1.7 0.00 0.00 0.00 96 1019.0
20260906101306 59 206 0.9 4.3 0.00 0.00 0.00 96 1018.5
20260906100802 59 207 0.9 1.7 0.00 0.00 0.00 96 1018.6
20260906100301 59 205 0.9 0.9 0.00 0.00 0.00 95 1018.5
20260906095756 59 201 0.9 1.7 0.00 0.00 0.00 95 1018.5
20260906095251 59 201 0.9 1.7 0.00 0.00 0.00 95 1018.3
20260906094750 60 201 0.9 1.7 0.00 0.00 0.00 95 1018.5
20260906094246 60 206 0.9 0.9 0.00 0.00 0.00 95 1018.4
20260906093742 60 205 0.9 0.9 0.00 0.00 0.00 95 1018.6
20260906093238 60 205 0.0 0.9 0.00 0.00 0.00 94 1018.6
20260906092733 60 201 0.9 0.9 0.00 0.00 0.00 94 1018.7
20260906092232 60 209 0.0 0.9 0.00 0.00 0.00 94 1018.6
20260906091728 61 201 0.9 0.9 0.00 0.00 0.00 94 1018.7
20260906091224 60 205 0.9 0.9 0.00 0.00 0.00 94 1018.3
20260906090720 60 187 0.9 2.6 0.00 0.00 0.00 95 1018.3
20260906090219 60 179 0.9 0.9 0.00 0.00 0.00 95 1018.4
20260906085719 60 207 0.9 1.7 0.00 0.00 0.00 95 1018.3
20260906085218 61 210 0.0 0.9 0.00 0.00 0.00 95 1018.1
20260906084712 61 183 1.7 1.7 0.00 0.00 0.00 95 1018.3
20260906084207 61 177 0.9 2.6 0.00 0.00 0.00 95 1018.4
20260906083702 61 217 0.0 0.9 0.00 0.00 0.00 95 1018.3
20260906083157 61 190 1.7 1.7 0.00 0.00 0.00 95 1018.1
20260906082652 61 191 1.7 2.6 0.00 0.00 0.00 96 1017.8
20260906082148 61 198 1.7 2.6 0.00 0.00 0.00 96 1018.0
20260906081644 62 197 0.9 1.7 0.00 0.00 0.00 96 1017.9
20260906081138 62 183 1.7 2.6 0.00 0.00 0.00 97 1017.8
20260906080635 61 218 0.0 0.0 0.00 0.00 0.00 96 1018.0
20260906080131 62 218 0.0 0.0 0.00 0.00 0.00 96 1017.8
20260906075630 62 218 0.0 0.0 0.00 0.00 0.00 96 1017.8
20260906075125 62 218 0.0 0.0 0.00 0.00 0.00 96 1018.0
20260906074620 62 217 0.0 0.0 0.00 0.00 0.00 95 1018.0
20260906074119 62 214 0.0 1.7 0.00 0.00 0.00 95 1017.8
20260906073614 62 205 0.9 0.9 0.00 0.00 0.00 95 1017.7
20260906073110 62 210 0.0 0.9 0.00 0.00 0.00 96 1017.7
20260906072605 62 223 0.0 0.0 0.00 0.00 0.00 96 1017.7
20260906072101 62 221 0.0 0.0 0.00 0.00 0.00 95 1017.7
20260906071557 63 222 0.0 0.0 0.00 0.00 0.00 95 1017.6
20260906071051 63 219 0.0 0.0 0.00 0.00 0.00 95 1017.7
20260906070548 63 207 0.0 0.9 0.00 0.00 0.00 95 1017.9
20260906070043 63 210 0.0 0.9 0.00 0.00 0.00 95 1017.9
20260906065543 63 217 0.0 0.0 0.00 0.00 0.00 94 1017.7
20260906065038 63 217 0.0 0.0 0.00 0.00 0.00 94 1017.8
20260906064534 64 215 0.0 0.9 0.00 0.00 0.00 94 1018.0
20260906064029 64 219 0.0 0.0 0.00 0.00 0.00 94 1017.8
20260906063524 64 209 0.9 0.9 0.00 0.00 0.00 94 1017.9
20260906063020 64 203 0.9 0.9 0.00 0.00 0.00 94 1017.9
20260906062515 65 234 0.0 0.9 0.00 0.00 0.00 93 1017.7
20260906062009 65 136 1.7 1.7 0.00 0.00 0.00 92 1017.7
20260906061506 65 178 1.7 2.6 0.00 0.00 0.00 92 1017.7
20260906060959 65 181 0.0 1.7 0.00 0.00 0.00 92 1017.8
20260906060457 65 227 0.9 2.6 0.00 0.00 0.00 92 1017.6
20260906055953 65 217 0.9 5.2 0.00 0.00 0.00 92 1017.6
20260906055449 66 195 2.6 4.3 0.00 0.00 0.00 92 1017.7
20260906054944 66 199 0.9 1.7 0.00 0.00 0.00 91 1017.8
20260906054443 66 197 0.9 1.7 0.00 0.00 0.00 91 1017.6
20260906053939 66 174 1.7 2.6 0.00 0.00 0.00 91 1017.6
20260906053435 66 123 2.6 2.6 0.00 0.00 0.00 91 1017.6
20260906052931 66 188 1.7 2.6 0.00 0.00 0.00 91 1017.6
20260906052427 66 185 0.9 1.7 0.00 0.00 0.00 91 1017.7
20260906051924 67 196 0.9 1.7 0.00 0.00 0.00 90 1017.4
20260906051424 67 130 0.9 1.7 0.00 0.00 0.00 90 1017.4
20260906050919 67 180 2.6 2.6 0.00 0.00 0.00 89 1017.6
20260906050414 68 163 0.9 1.7 0.00 0.00 0.00 89 1017.6
20260906045913 68 174 1.7 4.3 0.00 0.00 0.00 89 1017.2
20260906045412 68 162 2.6 4.3 0.00 0.00 0.00 88 1017.4
20260906044908 68 148 2.6 5.2 0.00 0.00 0.00 87 1017.1
20260906044403 69 153 1.7 2.6 0.00 0.00 0.00 87 1017.2
20260906043859 69 144 1.7 5.2 0.00 0.00 0.00 87 1017.1
20260906043354 69 178 1.7 5.2 0.00 0.00 0.00 86 1017.0
20260906042850 69 182 0.9 4.3 0.00 0.00 0.00 87 1017.1
20260906042348 69 177 1.7 2.6 0.00 0.00 0.00 86 1017.1
20260906041844 69 119 4.3 5.2 0.00 0.00 0.00 86 1017.0
20260906041340 70 159 2.6 4.3 0.00 0.00 0.00 86 1017.0
20260906040839 70 111 7.0 7.8 0.00 0.00 0.00 86 1017.0
20260906040334 69 164 3.5 5.2 0.00 0.00 0.00 87 1016.8
20260906035830 70 209 0.9 2.6 0.00 0.10 0.10 88 1016.9
20260906035325 70 112 2.6 2.6 0.00 0.10 0.10 87 1016.9
20260906034820 70 162 0.9 4.3 0.00 0.10 0.10 88 1016.8
20260906034315 69 205 0.0 1.7 0.00 0.10 0.10 89 1016.9
20260906033811 70 216 0.0 2.6 0.00 0.10 0.10 89 1016.9
20260906033310 70 180 2.6 2.6 0.00 0.10 0.10 89 1016.9
20260906032807 69 124 1.7 2.6 0.00 0.10 0.10 89 1017.0
20260906032305 70 190 0.9 5.2 0.00 0.10 0.10 90 1016.9
20260906031757 69 192 0.9 1.7 0.00 0.10 0.10 90 1017.0
20260906031253 69 197 1.7 4.3 0.00 0.10 0.10 90 1016.8
20260906030753 70 190 2.6 2.6 0.00 0.10 0.10 90 1017.0
20260906030248 70 179 2.6 2.6 0.00 0.10 0.10 91 1016.9
20260906025747 70 215 0.0 0.9 0.00 0.10 0.10 90 1016.7
20260906025242 70 144 2.6 2.6 0.00 0.10 0.10 90 1016.8
20260906024741 70 155 1.7 4.3 0.00 0.10 0.10 91 1016.7
20260906024240 70 191 0.9 2.6 0.00 0.10 0.10 91 1016.7
20260906023736 70 187 0.9 2.6 0.00 0.10 0.10 91 1016.5
20260906023231 70 161 1.7 2.6 0.00 0.10 0.10 91 1016.6
20260906022726 70 202 1.7 4.3 0.00 0.10 0.10 91 1016.4
20260906022221 70 209 0.9 4.3 0.00 0.10 0.10 91 1016.3
20260906021717 70 215 0.0 4.3 0.00 0.10 0.10 92 1016.3
20260906021216 70 208 2.6 5.2 0.00 0.10 0.10 93 1016.2
20260906020711 70 203 0.9 1.7 0.00 0.10 0.10 95 1016.3
20260906020206 69 206 0.9 1.7 0.00 0.10 0.10 96 1016.4
20260906015700 69 142 1.7 2.6 0.00 0.10 0.10 98 1016.2
20260906015158 69 227 0.9 1.7 0.00 0.10 0.10 98 1016.1
20260906014653 69 218 0.9 1.7 0.00 0.10 0.10 99 1016.3
20260906014149 69 240 0.0 0.9 0.00 0.10 0.10 99 1016.1
20260906013645 69 244 0.0 1.7 0.00 0.10 0.10 99 1016.0
20260906013140 69 231 0.0 0.0 0.00 0.10 0.10 99 1015.8
20260906012639 69 232 0.0 0.0 0.00 0.10 0.10 99 1016.2
20260906012134 70 232 0.0 0.0 0.00 0.10 0.10 99 1016.1
20260906011630 70 232 0.0 0.0 0.00 0.10 0.10 98 1016.0
20260906011125 70 231 0.0 0.0 0.00 0.10 0.10 98 1015.9
20260906010619 70 231 0.0 0.0 0.00 0.10 0.10 98 1015.8
20260906010116 70 231 0.0 0.0 0.00 0.10 0.10 98 1015.9
20260906005610 70 231 0.0 0.0 0.00 0.10 0.10 98 1015.6
20260906005109 71 231 0.0 0.0 0.00 0.10 0.10 98 1015.8
20260906004608 71 231 0.0 0.0 0.00 0.10 0.10 97 1015.7
20260906004103 71 231 0.0 0.0 0.00 0.10 0.10 97 1015.5
20260906003559 71 231 0.0 0.0 0.00 0.10 0.10 97 1015.6
20260906003054 71 231 0.0 0.9 0.00 0.10 0.10 97 1015.6
20260906002549 71 231 0.9 0.9 0.00 0.10 0.10 97 1015.7
20260906002043 72 229 0.9 0.9 0.00 0.10 0.10 96 1015.3
20260906001539 72 228 0.9 0.9 0.00 0.10 0.10 96 1015.3
20260906001033 72 231 0.0 0.0 0.00 0.10 0.10 95 1015.3
20260906000530 73 231 0.0 0.9 0.00 0.10 0.10 95 1015.3
20260906000024 73 231 0.9 0.9 0.00 0.10 0.10 94 1015.3
20260905235518 74 229 0.9 0.9 0.00 0.10 0.10 93 1015.5
20260905235013 74 229 0.0 0.0 0.00 0.10 0.10 92 1015.5
20260905234508 74 226 0.0 0.9 0.00 0.10 0.10 91 1015.5
20260905234003 74 210 0.0 0.0 0.00 0.10 0.10 91 1015.3
20260905233458 74 206 0.9 1.7 0.00 0.10 0.10 90 1015.3
20260905232956 74 230 0.9 1.7 0.00 0.10 0.10 91 1015.6
20260905232453 74 230 0.9 1.7 0.00 0.10 0.10 91 1015.6
20260905231949 74 230 0.9 1.7 0.00 0.10 0.10 91 1015.3
20260905231444 74 205 0.9 0.9 0.00 0.10 0.10 92 1015.3
20260905230941 74 194 0.9 0.9 0.00 0.10 0.10 91 1015.3
20260905230438 74 65 1.7 1.7 0.00 0.10 0.10 91 1015.6
20260905225931 73 156 1.7 1.7 0.00 0.10 0.10 92 1015.5
20260905225427 73 156 1.7 1.7 0.00 0.10 0.10 92 1015.3
20260905224922 73 156 1.7 1.7 0.00 0.10 0.10 92 1015.3
20260905224417 73 156 1.7 1.7 0.00 0.10 0.10 92 1015.2
20260905223911 73 175 1.7 2.6 0.00 0.10 0.10 92 1015.3
20260905223409 74 171 1.7 2.6 0.00 0.10 0.10 92 1015.0
20260905222909 74 352 2.6 4.3 0.00 0.10 0.10 92 1015.0
20260905222408 74 190 1.7 7.0 0.00 0.10 0.10 91 1015.1
20260905221904 74 161 3.5 7.0 0.00 0.10 0.10 91 1014.9
20260905221401 73 207 0.9 7.8 0.00 0.10 0.10 91 1014.9
20260905220856 73 150 2.6 6.1 0.00 0.10 0.10 92 1014.9
20260905220352 73 161 6.1 7.0 0.00 0.10 0.10 92 1014.9
20260905215851 73 143 6.1 7.0 0.00 0.10 0.10 92 1015.1
20260905215347 73 117 7.8 8.7 0.00 0.10 0.10 92 1015.1
20260905214844 73 171 1.7 7.0 0.00 0.10 0.10 93 1014.9
20260905214339 73 106 3.5 5.2 0.00 0.10 0.10 93 1014.8
20260905213833 73 166 5.2 7.8 0.00 0.10 0.10 93 1014.7
20260905213330 73 239 1.7 2.6 0.00 0.10 0.10 94 1014.9
20260905212825 73 157 4.3 7.0 0.00 0.10 0.10 93 1014.8
20260905212324 73 133 4.3 7.0 0.00 0.10 0.10 93 1014.8
20260905211819 73 119 3.5 7.0 0.00 0.10 0.10 93 1014.6
20260905211314 73 115 2.6 7.8 0.00 0.10 0.10 93 1014.9
20260905210811 73 106 1.7 5.2 0.00 0.10 0.10 93 1014.7
20260905210310 73 102 3.5 7.8 0.00 0.10 0.10 93 1014.7
20260905205809 73 118 4.3 5.2 0.00 0.10 0.10 94 1014.7
20260905205306 73 167 1.7 5.2 0.00 0.10 0.10 94 1014.8
20260905204803 72 150 2.6 6.1 0.00 0.10 0.10 94 1014.8
20260905204300 72 145 4.3 7.8 0.00 0.10 0.10 94 1014.8
20260905203758 72 274 0.9 4.3 0.00 0.10 0.10 95 1014.9
20260905203254 72 169 1.7 2.6 0.00 0.10 0.10 94 1014.9
20260905202749 72 207 2.6 6.1 0.00 0.10 0.10 94 1014.8
20260905202244 72 79 3.5 6.1 0.00 0.10 0.10 94 1015.0
20260905201740 73 128 3.5 6.1 0.00 0.10 0.10 94 1015.2
20260905201235 73 134 0.9 6.1 0.00 0.10 0.10 94 1015.2
20260905200730 73 169 0.9 5.2 0.00 0.10 0.10 94 1014.9
20260905200226 73 126 4.3 7.0 0.00 0.10 0.10 94 1015.2
20260905195723 73 126 4.3 6.1 0.00 0.10 0.10 94 1014.9
20260905195218 73 148 2.6 5.2 0.00 0.10 0.10 95 1015.2
20260905194714 73 140 1.7 7.0 0.00 0.10 0.10 95 1015.0
20260905194214 73 81 3.5 7.8 0.00 0.10 0.10 95 1014.9
20260905193708 73 138 5.2 7.0 0.00 0.10 0.10 95 1015.1
20260905193203 73 116 6.1 7.0 0.00 0.10 0.10 95 1014.9
20260905192658 73 114 2.6 4.3 0.00 0.10 0.10 95 1015.0
20260905192155 73 45 4.3 7.0 0.00 0.10 0.10 95 1015.1
20260905191654 73 189 0.9 4.3 0.00 0.10 0.10 95 1015.2
20260905191152 73 55 4.3 6.1 0.00 0.10 0.10 95 1014.9
20260905190651 73 41 2.6 6.1 0.00 0.10 0.10 95 1014.9
20260905190150 73 128 4.3 5.2 0.00 0.10 0.10 95 1015.2
20260905185649 73 48 3.5 7.0 0.00 0.10 0.10 95 1015.1
20260905185144 74 72 6.1 7.0 0.00 0.10 0.10 94 1015.0
20260905184643 74 31 4.3 5.2 0.00 0.10 0.10 94 1015.2
20260905184142 74 283 1.7 6.1 0.00 0.10 0.10 94 1015.0
20260905183642 74 61 1.7 6.1 0.00 0.10 0.10 95 1014.9
20260905183137 74 73 1.7 2.6 0.00 0.10 0.10 94 1014.8
20260905182636 74 48 3.5 6.1 0.00 0.10 0.10 95 1014.9
20260905182131 74 293 0.0 2.6 0.00 0.10 0.10 95 1014.9
20260905181626 74 76 2.6 5.2 0.00 0.10 0.10 94 1014.8
20260905181125 75 349 3.5 6.1 0.00 0.10 0.10 94 1014.9
20260905180620 75 36 3.5 4.3 0.00 0.10 0.10 94 1015.1
20260905180115 74 91 4.3 6.1 0.00 0.10 0.10 94 1015.0
20260905175615 73 41 2.6 4.3 0.00 0.10 0.10 95 1015.0
20260905175110 73 119 1.7 5.2 0.00 0.10 0.10 95 1014.9
20260905174605 73 44 0.9 2.6 0.00 0.10 0.10 96 1015.0
20260905174101 73 351 1.7 1.7 0.00 0.10 0.10 96 1015.0
20260905173557 72 359 2.6 5.2 0.00 0.10 0.10 97 1015.1
20260905173052 73 27 2.6 2.6 0.00 0.10 0.10 96 1015.1
20260905172551 72 153 4.3 4.3 0.00 0.10 0.10 97 1015.1
20260905172047 72 349 2.6 5.2 0.00 0.10 0.10 97 1015.0
20260905171543 72 142 1.7 4.3 0.00 0.10 0.10 97 1015.1
20260905171038 72 214 0.9 5.2 0.00 0.10 0.10 97 1015.2
20260905170535 73 80 0.9 5.2 0.00 0.10 0.10 97 1015.2
20260905170030 73 28 2.6 5.2 0.00 0.10 0.10 96 1015.3
20260905165525 73 83 2.6 5.2 0.00 0.10 0.10 96 1015.1
20260905165020 73 5 1.7 4.3 0.00 0.10 0.10 97 1015.0
20260905164514 73 25 3.5 5.2 0.00 0.10 0.10 97 1015.1
20260905164009 73 26 2.6 4.3 0.00 0.10 0.10 97 1015.1
20260905163505 72 299 0.9 5.2 0.00 0.10 0.10 97 1015.4
20260905163001 73 41 3.5 5.2 0.00 0.10 0.10 97 1015.1
20260905162456 73 325 0.9 4.3 0.00 0.10 0.10 97 1015.1
20260905161951 73 27 1.7 6.1 0.00 0.10 0.10 97 1015.2
20260905161450 73 343 2.6 4.3 0.00 0.10 0.10 97 1015.0
20260905160949 73 45 2.6 6.1 0.00 0.10 0.10 96 1015.1
20260905160442 74 15 2.6 6.1 0.00 0.10 0.10 95 1015.2
20260905155941 75 210 0.9 2.6 0.00 0.10 0.10 92 1015.1
20260905155437 75 258 1.7 1.7 0.00 0.10 0.10 93 1015.1
20260905154935 75 177 0.9 2.6 0.00 0.10 0.10 93 1014.9
20260905154431 75 190 0.9 2.6 0.00 0.10 0.10 93 1014.7
20260905153926 75 105 1.7 5.2 0.00 0.10 0.10 93 1015.0
20260905153423 75 130 2.6 2.6 0.00 0.10 0.10 93 1014.9
20260905152922 74 167 0.9 5.2 0.00 0.10 0.10 93 1014.9
20260905152421 74 143 2.6 4.3 0.00 0.10 0.10 94 1014.8
20260905151917 74 89 2.6 4.3 0.00 0.10 0.10 93 1014.7
20260905151413 74 208 0.9 2.6 0.00 0.10 0.10 94 1014.7
20260905150912 75 103 4.3 5.2 0.00 0.10 0.10 93 1014.7
20260905150407 75 181 1.7 1.7 0.00 0.10 0.10 93 1014.6
20260905145903 74 99 2.6 2.6 0.00 0.10 0.10 94 1014.7
20260905145358 73 125 3.5 6.1 0.00 0.10 0.10 95 1014.6
20260905144858 73 121 2.6 4.3 0.00 0.10 0.10 96 1014.6
20260905144353 73 137 3.5 6.1 0.00 0.10 0.10 96 1014.4
20260905143852 73 147 2.6 2.6 0.00 0.10 0.10 97 1014.6
20260905143346 72 199 0.9 4.3 0.00 0.10 0.10 97 1014.7
20260905142846 72 129 1.7 4.3 0.00 0.10 0.10 98 1014.8
20260905142344 72 219 1.7 4.3 0.00 0.10 0.10 98 1015.0
20260905141840 71 119 2.6 2.6 0.00 0.10 0.10 98 1014.8
20260905141336 71 183 2.6 5.2 0.00 0.10 0.10 99 1014.8
20260905140831 71 217 0.0 1.7 0.00 0.10 0.10 99 1014.6
20260905140326 71 187 1.7 4.3 0.00 0.10 0.10 99 1014.6
20260905135824 71 140 0.9 1.7 0.00 0.10 0.10 99 1014.6
20260905135321 71 188 1.7 4.3 0.00 0.10 0.10 99 1014.2
20260905134815 71 210 0.9 2.6 0.00 0.10 0.10 99 1014.4
20260905134309 71 124 1.7 5.2 0.00 0.10 0.10 99 1014.3
20260905133809 70 153 4.3 5.2 0.00 0.10 0.10 99 1014.2
20260905133304 70 126 3.5 6.1 0.00 0.10 0.10 99 1014.2
20260905132803 70 212 0.9 2.6 0.00 0.10 0.10 99 1014.4
20260905132259 70 155 2.6 7.8 0.00 0.10 0.10 99 1014.3
20260905131754 70 207 0.9 2.6 0.00 0.10 0.10 99 1014.2
20260905131249 70 156 2.6 5.2 0.00 0.10 0.10 99 1014.1
20260905130744 71 141 2.6 2.6 0.00 0.10 0.10 99 1014.1
20260905130243 71 105 3.5 5.2 0.00 0.10 0.10 99 1014.0
20260905125738 71 230 0.0 0.9 0.00 0.10 0.10 99 1013.9
20260905125233 70 115 2.6 9.6 0.00 0.10 0.10 99 1014.1
20260905124730 70 205 0.9 1.7 0.00 0.10 0.10 99 1014.2
20260905124225 70 225 1.7 6.1 0.00 0.10 0.10 99 1014.1
20260905123720 70 200 2.6 4.3 0.00 0.10 0.10 99 1014.1
20260905123218 69 153 2.6 4.3 0.00 0.10 0.10 99 1014.1
20260905122717 69 160 3.5 4.3 0.00 0.10 0.10 99 1014.1
20260905122211 69 148 2.6 4.3 0.00 0.10 0.10 99 1013.9
20260905121706 69 209 1.7 5.2 0.00 0.10 0.10 99 1013.9
20260905121203 69 101 0.9 2.6 0.00 0.10 0.10 99 1013.8
20260905120702 69 127 4.3 6.1 0.00 0.10 0.10 99 1013.8
20260905120156 69 136 2.6 5.2 0.00 0.10 0.10 99 1013.8
20260905115656 69 130 2.6 5.2 0.00 0.10 0.10 99 1013.6
20260905115151 69 131 3.5 7.0 0.00 0.10 0.10 99 1013.8
20260905114651 69 218 0.9 5.2 0.00 0.10 0.10 99 1013.6
20260905114149 68 148 2.6 2.6 0.00 0.10 0.10 99 1013.5
20260905113644 68 181 0.9 4.3 0.00 0.10 0.10 99 1013.7